STARLINK-1838 (47129 NORAD) Tracking and Keplerian Element Data

This shows tracking and keplerian element data for the satellite.

Feedback or suggestion? Click here.




ElementValue
Catalog47129
NameSTARLINK-1838
Epoch Orbit176
Epoch Day62.91667824
Epoch Year2021
RAAN234.8842
Inclination53.055
Eccentricity0.0001482
Argument of Perigee78.8868
Mean Anonmoly120.9992
Mean Motion15.18416239
Decay Rate-0.00839593
L11 47129U 20088H 21062.91667824 -.00839593 00000-0 -43215-1 0 9990
L22 47129 53.0550 234.8842 0001482 78.8868 120.9992 15.18416239 1760

Live tracking and technical data element details for STARLINK-1838 (NORAD 47129). STARLINK-1838 can be tracked NOW for your location showing map with azimuth and elevation plus other details from your city location.

Track the satellite on the map from your city or location and see movement details for azimuth, elevation, latitude, longitude, range, height, and movement on the map or in text.







IsCatalogInMostPopularTable: catalog: 47129, numindb: 31
Update: records affected: 1



GetName: 47129 STARLINK-1838

Hit Count: updated at: Fri, 05 Mar 2021 07:19:29 GMT